Temp
63 66 65 65 65 65 66 64 64 62 62 60 60 59 57 55 53 53 52 50 49 45 44 45 42 41 38 37 37 37 36 37 35 35 37 37 36 36 36 35 35 32 33
58 61 61 63 63 63 63 65 63 61 62 62 60 58 56 54 52 52 49 49 48 44 43 41 42 41 37 37 36 36 36 36 36 33 34 34 34 35 35 32 34 36 31
54 55 56 58 60 62 63 64 62 62 62 60 57 56 53 51 50 51 50 47 47 45 43 42 41 39 36 35 35 35 35 38 35 33 31 33 33 34 32 31 30 29 33
51 51 51 52 55 57 58 56 55 55 54 54 55 54 52 51 50 50 49 46 45 44 43 41 40 39 38 36 35 34 34 32 32 31 30 31 32 32 31 29 25 26 27
49 48 49 49 51 52 52 52 51 50 51 51 49 48 48 48 48 47 46 45 43 41 39 40 39 38 38 39 36 34 34 31 31 30 29 29 30 30 29 28 26 27 27
47 47 47 46 45 45 45 44 44 44 44 44 44 43 44 46 45 44 44 42 40 38 37 36 36 34 38 39 40 39 37 34 32 30 30 30 31 30 29 27 25 24 23
45 42 41 40 41 40 40 40 40 40 39 39 39 39 39 40 42 42 41 40 39 39 37 35 34 33 34 35 39 39 38 40 38 33 31 31 30 30 27 22 24 25 27
40 39 38 38 37 36 38 38 37 37 37 37 37 37 37 36 41 41 38 36 36 36 36 36 35 33 34 34 34 33 32 33 34 33 32 32 31 31 29 29 27 26 27
38 38 37 36 31 35 34 36 36 36 34 34 33 34 34 34 40 40 38 35 34 34 34 35 34 33 35 37 33 31 30 30 36 37 36 36 36 37 34 29 23 21 20
37 37 36 34 31 35 35 33 32 32 32 32 32 33 33 33 39 39 37 34 33 32 32 32 32 33 36 37 32 31 29 29 30 29 30 34 35 35 37 33 30 24 22
32 32 30 29 33 34 33 31 32 32 31 32 32 32 33 34 35 39 38 34 33 32 31 31 32 36 37 37 34 31 30 30 32 30 29 29 29 29 29 30 32 30 26
27 27 25 30 32 33 33 32 32 32 32 31 31 30 30 31 34 38 38 35 35 31 30 30 31 35 36 36 34 34 36 32 30 29 28 28 28 29 31 29 29 30 31
25 23 29 26 33 33 33 32 31 32 31 29 29 29 28 30 33 37 37 35 34 30 30 31 32 35 36 35 35 35 32 31 29 28 28 28 28 29 29 29 29 29 29
22 23 22 22 22 26 31 31 32 31 30 29 29 29 28 29 31 33 33 33 33 31 32 31 32 33 33 32 31 34 31 29 28 28 27 27 27 26 26 27 26 26 26
22 22 22 21 19 20 23 28 29 29 31 30 30 30 28 28 30 33 32 31 30 31 29 29 29 28 28 27 27 27 27 27 25 25 24 24 24 25 25 25 26 25 23
23 22 21 20 19 19 18 19 32 34 36 37 36 32 30 33 34 35 36 34 33 33 27 26 26 26 26 26 25 25 25 24 24 24 23 23 23 23 23 23 24 23 23
18 18 17 18 17 16 15 15 16 22 34 36 36 35 34 33 35 35 35 35 35 33 23 25 25 25 25 25 25 24 23 23 23 22 22 21 20 20 19 20 20 20 19
15 16 15 14 14 14 14 14 13 13 13 24 31 32 33 33 34 34 35 34 30 31 28 19 24 24 25 24 22 22 21 19 18 18 17 17 17 16 16 16 16 16 16
16 15 12 11 11 12 12 12 11 11 11 15 23 25 25 32 33 34 34 30 27 27 28 25 19 22 22 21 20 19 18 17 16 15 15 14 14 13 12 14 14 15 15
13 16 13 12 12 12 11 11 11 10 9 8 9 10 12 17 26 27 29 29 26 24 18 19 19 20 19 19 17 16 13 14 13 13 12 12 12 12 12 11 11 12 11
6 7 8 8 8 5 5 8 22 17 10 8 7 9 24 13 10 10 14 15 15 15 16 18 15 15 14 14 14 13 13 12 12 12 11 11 11 9 10 11 11 10 10
4 3 3 2 1 5 2 3 4 7 13 14 13 9 25 20 11 11 12 12 14 15 12 12 12 12 11 12 12 11 11 11 11 12 11 11 10 9 9 9 8 9 9
3 2 2 -0 -1 2 3 0 0 0 1 1 2 4 3 5 8 7 10 11 9 9 10 9 8 5 6 6 8 10 9 9 11 11 10 9 9 8 8 7 7 7 7
-2 -3 -3 -4 -3 -4 -5 -3 -3 -0 -0 1 3 4 6 6 6 7 6 5 3 2 1 1 2 3 3 2 4 5 5 6 6 5 7 6 6 7 7 6 7 6 7
-6 -5 -5 -5 -8 -7 -7 -7 -4 -6 -6 -4 -3 -3 -3 -3 -2 -4 -4 -2 -2 -3 -2 -2 -2 1 3 3 1 1 5 10 5 6 4 4 3 2 4 5 5 6 6
-7 -8 -10 -10 -10 -11 -10 -9 -9 -10 -9 -6 -5 -7 -7 -6 -6 -8 -7 -7 -4 -3 -2 -1 -1 1 1 3 4 6 7 9 7 8 5 3 1 1 3 3 4 4 4
MSLP
1012.79 1013.06 1013.44 1013.75 1014.24 1014.69 1015.08 1015.39 1015.63 1016.05 1016.32 1016.70 1017.07 1017.42 1017.89 1018.55 1019.19 1019.88 1020.31 1020.63 1021.15 1021.80 1022.39 1022.71 1022.99 1023.17 1023.86 1024.77 1025.25 1025.72 1026.10 1026.42 1027.47 1028.47 1028.80 1029.26 1029.54 1029.72 1030.29 1030.39 1030.45 1030.79 1030.83
1012.59 1012.72 1012.95 1013.09 1013.42 1013.76 1014.06 1014.25 1014.60 1014.87 1015.10 1015.40 1016.05 1016.48 1017.04 1017.59 1018.02 1018.64 1019.40 1020.01 1020.65 1021.06 1021.21 1022.38 1023.38 1023.71 1023.79 1024.25 1025.08 1025.70 1026.03 1026.43 1027.01 1028.07 1028.64 1029.31 1029.66 1029.81 1029.91 1030.51 1030.39 1030.35 1030.70
1012.58 1012.64 1012.68 1012.63 1012.54 1012.47 1012.51 1012.81 1013.36 1013.71 1014.17 1014.63 1015.19 1015.63 1016.32 1016.84 1017.34 1017.85 1018.50 1019.19 1019.71 1020.13 1021.12 1022.12 1022.71 1023.60 1023.99 1024.00 1024.69 1025.56 1026.05 1026.59 1027.13 1027.76 1028.57 1029.00 1029.50 1029.95 1030.23 1030.32 1030.59 1030.66 1030.54
1012.57 1012.60 1012.71 1012.80 1012.80 1012.70 1012.76 1012.96 1013.19 1013.45 1013.83 1014.25 1014.64 1015.02 1015.47 1015.98 1016.68 1017.27 1017.77 1018.30 1019.09 1019.59 1020.12 1020.63 1021.91 1022.29 1022.24 1023.64 1023.90 1024.39 1025.32 1026.19 1027.06 1028.10 1028.73 1029.21 1029.33 1029.73 1030.19 1030.36 1030.62 1030.68 1030.46
1012.49 1012.57 1012.64 1012.79 1012.83 1012.79 1012.82 1012.99 1013.32 1013.67 1014.02 1014.29 1014.84 1015.28 1015.53 1015.80 1016.12 1016.63 1017.18 1017.99 1018.44 1019.19 1019.84 1020.62 1021.21 1022.03 1022.46 1023.04 1023.02 1024.09 1024.88 1025.47 1026.03 1026.90 1027.95 1028.74 1029.19 1029.41 1029.74 1029.97 1030.23 1030.29 1030.04
1012.57 1012.76 1012.94 1013.07 1013.24 1013.42 1013.62 1013.83 1013.78 1014.16 1014.34 1014.55 1014.81 1015.12 1015.44 1015.60 1015.75 1016.16 1016.56 1017.21 1017.81 1018.50 1019.58 1020.39 1020.38 1021.39 1022.51 1023.36 1023.22 1023.78 1024.02 1025.27 1025.69 1026.45 1027.32 1027.98 1028.46 1028.72 1028.98 1029.54 1029.91 1030.10 1029.84
1012.81 1013.08 1013.21 1013.37 1013.54 1013.88 1014.07 1014.00 1014.29 1014.76 1015.15 1015.47 1015.66 1015.79 1015.95 1016.00 1016.00 1016.27 1016.61 1016.88 1017.25 1017.83 1018.55 1019.50 1020.72 1021.63 1022.36 1023.16 1024.26 1024.10 1023.92 1024.48 1024.84 1025.26 1026.35 1027.09 1027.75 1028.14 1028.48 1029.32 1029.50 1029.71 1029.67
1013.10 1013.31 1013.44 1013.73 1014.01 1014.31 1014.46 1014.69 1015.00 1015.25 1015.52 1015.79 1016.04 1016.22 1016.41 1016.58 1016.85 1017.18 1017.49 1017.83 1018.15 1018.31 1018.75 1019.14 1020.25 1020.50 1021.53 1022.46 1023.48 1023.82 1023.89 1024.27 1024.98 1025.26 1025.65 1026.09 1026.83 1027.62 1027.98 1028.36 1028.61 1028.98 1029.13
1013.39 1013.60 1013.80 1014.14 1014.51 1014.79 1014.95 1015.11 1015.29 1015.49 1015.72 1015.81 1015.97 1016.20 1016.45 1016.59 1016.82 1017.11 1017.67 1018.39 1018.39 1019.04 1019.21 1019.48 1019.81 1020.55 1021.49 1022.42 1023.51 1023.79 1024.21 1024.41 1024.55 1025.15 1025.52 1025.78 1026.27 1026.72 1027.29 1027.91 1028.41 1028.87 1028.98
1013.97 1013.84 1013.95 1014.23 1014.68 1014.84 1015.08 1015.39 1015.58 1015.65 1015.84 1016.03 1016.18 1016.39 1016.56 1016.67 1016.88 1017.21 1017.84 1018.34 1018.57 1019.01 1019.70 1020.26 1020.51 1020.99 1020.84 1022.31 1023.49 1023.76 1024.19 1024.67 1024.96 1025.19 1025.47 1025.27 1025.59 1026.00 1026.43 1026.73 1027.27 1027.92 1028.30
1014.80 1014.62 1014.69 1014.69 1014.86 1014.81 1015.03 1015.44 1015.74 1016.05 1016.19 1016.34 1016.60 1016.43 1016.49 1016.54 1017.05 1017.44 1017.79 1018.06 1018.15 1019.10 1019.92 1020.86 1020.92 1021.28 1021.92 1022.61 1022.87 1022.85 1023.45 1024.13 1024.66 1025.10 1025.36 1025.51 1025.65 1025.91 1026.04 1026.21 1026.39 1026.68 1027.25
1015.28 1015.32 1015.44 1015.22 1015.08 1015.19 1015.25 1015.46 1015.75 1016.01 1016.34 1016.69 1016.85 1017.04 1017.15 1016.88 1017.18 1017.57 1018.02 1018.49 1018.37 1018.52 1019.83 1020.59 1021.11 1021.49 1021.60 1022.53 1023.20 1022.85 1023.13 1023.68 1024.31 1024.79 1024.96 1024.92 1025.06 1025.28 1025.30 1025.67 1025.94 1026.12 1026.29
1016.23 1016.23 1016.43 1016.35 1016.02 1015.86 1015.86 1016.18 1016.35 1016.27 1016.41 1016.91 1017.10 1017.42 1017.30 1017.22 1017.20 1017.32 1017.79 1017.96 1018.60 1019.34 1019.67 1020.50 1021.16 1020.97 1021.79 1022.04 1022.87 1022.95 1023.03 1023.35 1023.79 1023.91 1024.24 1024.18 1024.36 1024.52 1024.88 1025.12 1025.32 1025.59 1025.82
1016.90 1017.02 1017.21 1017.32 1017.11 1016.73 1016.38 1016.41 1016.54 1016.59 1016.64 1016.89 1017.15 1017.26 1017.32 1017.67 1017.66 1017.46 1017.65 1018.10 1018.36 1018.85 1019.39 1020.18 1020.57 1021.22 1021.49 1022.15 1022.56 1022.43 1022.33 1022.86 1023.09 1023.47 1023.68 1023.80 1024.08 1024.19 1024.56 1024.92 1024.99 1025.27 1025.47
1017.16 1017.35 1017.32 1017.22 1017.29 1017.33 1017.23 1016.82 1016.70 1016.85 1016.89 1017.25 1017.26 1017.24 1017.40 1017.58 1017.54 1017.60 1017.92 1018.12 1018.35 1018.94 1019.78 1020.30 1020.91 1021.28 1021.73 1022.05 1022.22 1022.20 1022.34 1022.62 1022.92 1023.14 1023.39 1023.69 1023.79 1024.05 1024.15 1024.52 1024.66 1024.66 1024.72
1017.93 1017.88 1017.84 1017.87 1018.00 1017.74 1017.63 1017.36 1016.91 1016.91 1016.73 1016.51 1016.25 1016.53 1017.08 1017.05 1017.13 1017.27 1017.62 1018.10 1018.46 1018.85 1019.42 1019.79 1020.03 1020.41 1020.71 1020.98 1021.38 1021.78 1021.88 1022.25 1022.41 1022.74 1022.96 1023.13 1023.33 1023.58 1023.82 1024.15 1024.40 1024.39 1024.39
1018.75 1018.56 1018.47 1018.46 1018.43 1018.25 1018.33 1018.39 1018.69 1017.91 1017.73 1017.50 1017.29 1017.09 1017.05 1016.77 1016.54 1017.03 1017.62 1018.05 1018.50 1019.03 1019.53 1019.94 1019.88 1020.01 1020.30 1020.60 1020.88 1021.29 1021.67 1021.83 1022.17 1022.59 1022.71 1022.79 1023.10 1023.35 1023.59 1023.72 1023.82 1023.99 1024.09
1019.48 1019.34 1019.33 1019.29 1018.97 1018.89 1018.91 1019.02 1018.99 1019.01 1019.04 1018.45 1017.98 1017.92 1017.91 1017.98 1017.94 1017.85 1017.90 1018.14 1018.52 1018.77 1019.53 1019.83 1020.00 1020.22 1020.45 1020.69 1021.01 1021.38 1021.61 1021.94 1022.24 1022.65 1022.74 1022.88 1023.10 1023.23 1023.32 1023.31 1023.28 1023.57 1023.84
1020.45 1020.36 1020.00 1019.73 1019.78 1019.65 1019.52 1019.17 1019.24 1019.62 1019.50 1019.37 1019.18 1018.81 1018.32 1017.97 1017.87 1017.82 1018.06 1018.38 1018.92 1019.19 1019.18 1019.78 1020.03 1020.24 1020.51 1020.62 1020.86 1021.04 1021.21 1021.68 1022.00 1022.39 1022.53 1022.68 1022.77 1022.96 1022.97 1023.01 1023.20 1023.33 1023.39
1021.07 1020.91 1021.10 1021.08 1020.98 1020.63 1020.58 1020.40 1020.12 1020.09 1020.19 1019.99 1019.95 1019.98 1019.57 1019.27 1018.98 1018.62 1018.58 1018.86 1019.34 1019.47 1019.55 1019.70 1019.91 1019.97 1020.29 1020.47 1020.68 1020.80 1021.25 1021.64 1021.87 1021.98 1022.23 1022.43 1022.64 1022.83 1022.89 1022.90 1022.93 1023.10 1023.18
1022.11 1021.84 1021.49 1021.55 1021.86 1021.98 1021.91 1021.71 1021.39 1021.04 1021.02 1020.73 1020.54 1020.32 1019.84 1019.86 1019.58 1020.19 1019.62 1019.38 1019.78 1020.01 1019.92 1019.79 1019.72 1019.94 1020.18 1020.41 1020.53 1020.82 1020.91 1021.09 1021.42 1021.61 1021.86 1022.07 1022.23 1022.39 1022.46 1022.69 1022.80 1022.98 1023.03
1023.07 1022.99 1022.88 1022.86 1022.60 1022.55 1022.60 1022.43 1022.25 1022.04 1021.86 1021.63 1021.28 1020.75 1020.23 1020.35 1020.53 1020.42 1020.08 1019.86 1019.69 1019.73 1020.11 1020.62 1020.24 1020.31 1020.05 1020.13 1020.39 1020.59 1020.70 1020.87 1020.99 1021.14 1021.29 1021.52 1021.82 1022.00 1022.19 1022.36 1022.52 1022.58 1022.56
1024.00 1023.91 1023.80 1023.73 1023.56 1023.46 1023.13 1023.18 1022.84 1022.52 1022.25 1022.17 1021.98 1021.94 1021.50 1021.38 1021.07 1020.83 1020.63 1020.51 1020.26 1020.18 1019.93 1020.14 1020.40 1020.47 1020.21 1020.24 1020.20 1020.35 1020.51 1020.55 1020.56 1020.69 1021.02 1021.27 1021.46 1021.73 1022.00 1022.16 1022.29 1022.38 1022.45
1025.25 1025.17 1025.03 1024.76 1024.50 1024.26 1023.92 1023.60 1023.35 1023.14 1023.02 1022.78 1022.28 1022.08 1021.70 1021.39 1021.23 1021.07 1020.91 1020.86 1020.73 1020.53 1020.57 1020.42 1020.38 1020.50 1020.33 1020.14 1020.18 1020.29 1020.47 1020.54 1020.64 1020.83 1020.91 1021.14 1021.27 1021.50 1021.59 1021.79 1022.03 1022.20 1022.32
1025.97 1025.89 1025.87 1025.90 1025.69 1025.26 1024.74 1024.38 1024.17 1023.74 1023.38 1023.05 1023.05 1022.41 1021.83 1021.64 1021.47 1021.34 1021.21 1021.18 1021.12 1021.19 1020.92 1020.66 1020.45 1020.43 1020.15 1019.90 1019.96 1020.07 1019.99 1020.07 1020.43 1020.57 1020.79 1020.81 1020.90 1021.06 1021.42 1021.78 1022.02 1021.84 1021.81
1026.30 1026.17 1026.20 1025.94 1026.18 1025.83 1025.36 1024.88 1024.47 1024.07 1023.94 1023.37 1022.94 1022.47 1022.11 1021.76 1021.39 1021.13 1021.08 1021.02 1021.04 1021.04 1020.68 1020.37 1020.01 1019.95 1019.89 1019.63 1019.64 1019.76 1019.79 1019.79 1019.91 1020.12 1020.46 1020.78 1021.05 1021.06 1021.16 1021.22 1021.30 1021.42 1021.41
Wind_Speed
12 14 14 13 15 14 14 12 13 8 11 13 14 14 14 13 10 10 9 9 11 7 4 8 9 8 7 4 4 3 3 3 4 1 2 2 2 5 3 2 3 4 3
6 9 10 11 11 13 14 16 12 13 13 16 15 14 13 12 12 13 12 11 12 12 12 9 8 6 9 7 5 4 4 3 4 4 2 2 2 3 4 2 2 3 4
6 7 7 10 12 16 17 17 13 13 13 12 12 14 12 12 12 12 12 11 12 12 11 9 10 9 8 7 7 6 5 3 3 3 3 2 2 2 2 1 1 1 3
6 6 7 6 7 7 7 7 7 7 9 10 11 12 13 12 12 11 12 12 11 11 12 13 12 13 14 11 9 9 7 6 4 3 2 2 2 2 1 2 0 1 2
6 5 6 4 4 3 5 5 4 4 5 5 6 5 6 8 9 12 13 12 12 10 8 9 9 6 8 11 9 10 10 6 6 4 3 2 3 3 3 3 2 2 3
4 5 2 1 1 1 1 1 3 3 5 6 7 8 8 7 11 16 14 12 11 12 12 7 9 11 11 11 11 14 12 10 7 5 3 3 4 3 3 3 3 1 2
3 2 2 2 2 3 2 4 3 2 3 3 2 2 5 4 9 13 12 9 11 11 12 11 7 5 8 7 7 12 13 13 9 7 6 4 4 5 5 3 3 3 3
3 2 3 2 2 2 2 2 2 2 0 1 2 3 3 3 8 10 10 5 5 7 9 11 11 11 12 11 9 7 7 6 6 4 5 5 3 4 5 5 5 3 1
2 2 3 3 4 4 3 3 2 2 1 2 2 4 4 2 11 13 12 5 6 7 7 8 10 10 14 17 11 11 7 4 7 9 9 8 10 12 9 3 3 3 2
2 2 2 3 3 3 3 2 1 1 2 2 2 2 2 2 11 14 9 3 5 5 5 6 11 12 20 22 9 8 8 7 7 3 2 8 12 10 16 10 6 4 3
4 3 2 2 2 2 3 2 2 2 3 2 2 2 5 6 6 14 12 5 6 5 5 4 3 13 16 18 12 8 7 8 10 5 4 4 3 4 4 4 8 6 5
3 4 3 1 1 2 5 3 3 4 3 2 3 2 1 2 7 12 10 5 11 8 7 4 4 15 18 16 12 12 12 9 5 5 4 6 5 6 5 5 7 7 7
5 5 4 3 3 2 3 3 2 2 3 2 1 1 1 1 3 13 13 14 13 5 6 9 12 15 15 13 16 15 10 5 4 5 7 5 4 3 3 3 4 6 6
6 5 4 4 4 4 3 2 1 1 1 2 2 3 3 0 2 5 5 7 11 7 11 8 11 11 11 8 6 10 6 6 6 6 4 2 2 2 2 2 3 4 5
4 3 3 3 3 2 2 2 2 1 1 1 2 3 4 4 4 7 9 5 5 7 8 5 4 5 6 5 4 5 3 4 5 4 3 3 3 3 4 3 4 4 7
5 4 3 3 3 3 3 3 7 3 3 7 7 7 2 5 12 15 15 13 14 18 4 6 8 8 9 7 7 6 5 6 5 4 5 5 5 5 5 3 4 5 6
5 3 2 3 2 2 2 2 1 6 10 6 1 4 7 7 13 15 16 15 15 15 1 4 6 7 6 6 5 5 4 4 4 4 4 4 3 3 4 5 4 4 5
4 6 3 2 3 3 2 1 1 1 1 2 5 3 5 7 8 10 11 11 6 10 7 3 5 4 3 3 3 3 3 3 3 3 3 3 4 4 4 4 4 4 5
6 5 4 3 3 3 2 3 3 2 1 0 2 4 5 4 5 7 11 5 7 7 7 3 2 2 2 3 3 3 3 3 4 4 3 4 4 4 4 4 4 6 5
6 9 7 5 5 5 4 4 4 2 1 1 1 2 3 4 2 1 3 3 3 3 2 3 3 4 4 4 3 3 3 4 4 4 4 4 3 4 4 4 4 4 3
4 4 4 4 4 3 3 3 3 2 2 2 2 3 5 1 2 3 1 1 2 2 3 3 2 2 2 3 3 4 4 4 4 4 4 4 4 4 4 4 4 3 4
4 3 4 3 2 4 3 2 3 3 3 3 3 4 9 1 2 2 3 2 2 2 2 2 2 3 4 4 4 3 4 4 4 4 5 4 4 4 4 4 4 4 4
5 5 4 3 3 3 3 2 3 3 2 2 2 2 3 2 3 3 3 3 2 2 1 2 2 1 1 2 3 3 3 4 4 4 4 4 4 4 4 4 4 4 4
4 4 4 3 3 3 3 4 4 3 3 3 3 2 3 2 3 3 3 3 2 2 2 2 2 3 3 2 2 2 1 1 2 2 3 2 3 4 3 4 4 4 4
4 4 4 4 3 3 3 3 3 3 3 3 3 3 3 3 3 4 4 3 3 2 4 3 2 3 4 5 4 5 5 7 4 5 3 4 5 5 4 4 4 5 5
3 3 2 2 2 3 3 3 3 3 3 3 3 3 3 3 3 3 3 3 3 3 4 3 4 6 6 4 6 7 7 8 7 7 5 4 4 4 5 6 7 6 7
Wind_Direction
209 212 215 212 214 213 218 218 217 201 199 200 201 198 198 197 191 198 196 180 183 174 173 188 180 162 158 152 149 145 146 130 117 127 106 157 130 144 134 133 143 167 177
214 213 211 211 206 206 212 218 207 203 196 200 201 197 198 198 187 190 188 189 191 190 180 162 187 171 160 158 155 163 149 145 119 138 121 131 143 174 153 158 200 177 194
222 219 225 219 208 210 213 215 211 205 204 200 192 195 193 194 188 195 195 192 193 185 172 187 175 175 171 164 160 157 151 136 105 119 131 149 113 147 136 159 182 236 228
237 239 241 248 245 238 227 204 195 187 180 187 196 200 196 188 191 193 194 187 190 193 181 175 185 187 170 178 166 167 151 146 129 111 99 138 148 140 145 166 254 225 251
230 230 239 264 277 238 197 185 168 172 190 177 167 181 181 187 192 187 186 196 188 188 181 184 172 180 175 183 165 165 161 154 151 142 133 138 170 160 191 192 171 220 265
221 230 260 263 159 190 84 127 123 170 180 173 190 190 195 205 197 194 185 182 180 173 177 174 151 143 166 184 172 166 163 165 160 149 154 178 180 184 168 174 156 165 286
169 140 128 124 100 51 31 55 47 7 20 330 310 211 225 231 190 190 188 187 179 185 167 150 140 135 138 144 183 168 168 175 171 151 150 159 181 192 153 167 178 172 216
115 132 106 112 117 105 84 82 88 86 225 280 263 246 239 249 205 189 166 161 157 164 154 157 166 158 162 165 167 157 164 159 165 151 159 161 159 182 173 178 186 178 225
122 170 179 163 153 153 163 195 205 203 187 202 183 182 192 220 197 180 165 164 150 154 161 164 165 165 173 164 174 178 173 164 178 180 196 208 213 218 202 158 180 130 246
312 254 209 169 161 178 188 170 139 129 169 156 149 155 164 176 189 180 162 129 156 149 153 153 162 176 168 187 184 174 175 192 172 175 189 217 221 215 220 207 187 189 173
359 34 57 122 178 155 144 135 144 113 117 126 136 151 163 157 184 183 172 154 150 140 137 147 148 181 185 193 185 176 183 155 182 181 190 201 208 216 223 218 203 199 198
44 66 50 48 129 143 152 130 124 141 140 139 131 89 6 97 177 190 178 146 140 136 155 146 165 186 184 196 197 188 176 151 165 185 189 210 205 214 216 212 208 213 219
43 37 41 21 40 70 97 112 100 120 126 123 109 144 126 118 148 163 152 148 134 141 155 166 174 184 190 194 208 203 191 184 179 189 217 215 201 199 201 206 213 215 223
52 37 24 37 15 16 37 50 71 112 125 150 170 168 134 181 177 158 141 143 154 158 165 174 178 184 183 188 207 203 188 195 195 215 214 172 175 158 175 182 188 198 226
74 53 49 76 76 54 46 46 75 220 156 219 222 184 173 195 199 171 164 168 157 150 132 137 164 167 185 190 201 214 201 194 206 198 182 191 195 205 221 197 217 208 224
53 35 31 27 14 48 57 13 23 39 235 210 196 169 210 216 191 190 191 183 175 165 147 179 185 190 196 198 202 213 199 202 198 196 203 201 211 211 213 203 222 226 245
50 25 35 56 59 80 65 90 32 345 19 14 191 215 205 195 194 205 209 205 196 183 183 208 202 195 203 203 202 195 208 200 172 206 204 201 199 207 209 215 213 224 251
41 39 39 13 45 47 62 37 81 76 43 355 4 332 305 293 261 241 227 205 207 208 220 195 210 204 199 178 167 197 176 163 176 201 206 208 213 209 207 215 205 223 240
19 6 6 24 23 41 45 77 88 53 19 320 316 340 345 280 244 223 213 202 216 224 222 206 146 140 178 176 188 184 166 187 191 200 209 207 197 195 219 219 227 230 233
22 18 20 11 8 14 13 24 24 33 358 256 296 265 317 7 320 205 209 219 217 210 170 170 187 186 198 193 186 176 173 189 201 198 204 203 205 208 233 219 217 226 226
9 8 29 40 30 10 11 355 344 343 277 261 259 274 266 222 255 278 271 177 187 218 216 209 181 165 171 180 184 196 201 203 206 206 206 209 202 209 209 219 222 224 241
16 16 19 24 13 25 4 5 14 12 10 356 342 323 343 356 298 286 288 276 239 194 200 217 205 205 193 193 196 201 204 211 206 204 209 201 198 205 201 209 221 228 230
16 19 19 8 16 9 28 3 22 27 11 351 326 326 337 314 298 280 273 273 250 232 211 198 210 227 203 189 175 188 197 211 209 196 206 203 202 206 203 223 230 237 239
7 9 7 357 4 3 6 355 344 349 334 324 339 328 308 305 303 302 287 282 272 272 247 225 222 224 218 208 195 194 206 182 160 194 201 192 199 197 197 213 223 238 253
10 10 10 356 351 342 346 345 333 329 326 318 308 306 302 314 322 315 313 309 301 286 274 265 249 245 248 241 229 215 217 244 209 196 187 180 185 184 202 227 244 244 241
344 345 324 327 330 331 339 329 307 310 309 307 296 291 284 276 268 275 283 287 277 274 273 260 253 259 266 258 255 248 239 241 235 224 187 188 190 203 215 225 230 236 248